Location: Tychy
(50.1330°N, 18.9830°E)
Time: 04:16:35
(UTC+01:00)

ISS - Visible Passes

Search period start: 25 January 2020 00:00
Search period end: 04 February 2020 00:00
Orbit: 415 x 423 km, 51.6° (Epoch: 25 January)

Date Brightness Start Highest point End Pass type
(mag) Time Alt. Az. Time Alt. Az. Time Alt. Az.
25 Jan -3.2 17:39:23 10° SW 17:42:38 46° SSE 17:44:31 22° E visible
25 Jan -1.3 19:16:01 10° W 19:17:29 23° W 19:17:29 23° W visible
26 Jan -3.9 18:28:27 10° W 18:31:51 81° NNW 18:31:56 80° NNE visible
27 Jan -3.8 17:40:55 10° WSW 17:44:18 83° SSE 17:46:22 22° ENE visible
27 Jan -1.3 19:17:52 10° W 19:19:20 23° WNW 19:19:20 23° WNW visible
28 Jan -3.7 18:30:16 10° W 18:33:38 66° N 18:33:44 65° N visible
29 Jan -3.7 17:42:40 10° W 17:46:02 71° N 17:48:08 21° ENE visible
29 Jan -1.4 19:19:37 10° WNW 19:21:06 24° WNW 19:21:06 24° WNW visible
30 Jan -3.8 18:32:01 10° WNW 18:35:24 70° N 18:35:30 69° NNE visible
31 Jan -3.6 17:44:24 10° W 17:47:47 65° N 17:49:55 21° E visible
31 Jan -1.5 19:21:17 10° WNW 19:22:53 25° W 19:22:53 25° W visible
01 Feb -3.9 18:33:41 10° WNW 18:37:05 86° SSW 18:37:20 75° ESE visible
02 Feb -3.8 17:46:05 10° WNW 17:49:29 79° NNE 17:51:50 18° E visible
02 Feb -1.5 19:23:00 10° W 19:24:48 24° WSW 19:24:48 24° WSW visible
03 Feb -3.0 18:35:19 10° WNW 18:38:36 49° SSW 18:39:23 39° SSE visible
